Flag for Germany Weather past 2 weeks in Aurich, Lower Saxony, Germany

Now
54 °F

Passing clouds.


Feels Like: 47 °F
Forecast: 48 / 50 °F
Wind: 30 mph from West

Location: Wittmundhaven

Current Time: Dec 22, 2014 at 5:50:51 PM

Latest Report: Dec 22, 2014 at 5:20 PM


Visibility: N/A

Pressure: 29.80 "Hg

Humidity: 77%

Dew point: 46 °F

Location of AurichLocation

Historic Weather in Aurich — Graph

°F

Aurich temperature yesterday

Maximum temperature yesterday: 48 °F (at 10:20 PM)
Minimum temperature yesterday: 41 °F (at 6:20 AM)
Average temperature yesterday: 44 °F

Past Weeks' High & Low Weather Summary

 TemperatureHumidityPressure
High54 °F (Dec 18, 6:20 PM)100% (Dec 7, 4:20 PM)30.30 "Hg (Dec 7, 4:20 PM)
Low30 °F (Dec 8, 11:50 PM)71% (Dec 10, 2:20 PM)29.15 "Hg (Dec 12, 11:20 AM)
Average41 °F89%29.78 "Hg
* Reported Dec 7 4:20 PM — Dec 22 4:20 PM, Aurich, Weather by CustomWeather, © 2014

Note: Actual official high and low records may vary slightly from our data, if they occured in-between our weather recording intervals... More about our weather records

Advertising

Aurich weather history for previous 24 hours

 ConditionsComfort  
Time TempWeatherWind HumidityBarometerVisibility
4:20 PM
Dec 22
54 °FPassing clouds.31 mph77%29.77 "HgN/A
3:20 PM54 °FDrizzle. Partly sunny.33 mph77%29.77 "HgN/A
2:20 PM54 °FDrizzle. Partly sunny.33 mph82%29.77 "HgN/A
1:20 PM54 °FPartly sunny.38 mph82%29.77 "HgN/A
12:20 PM54 °FPartly sunny.35 mph82%29.77 "HgN/A
11:20 AM54 °FDrizzle. Partly sunny.32 mph82%29.77 "HgN/A
10:20 AM54 °FDrizzle. Partly sunny.33 mph88%29.74 "HgN/A
9:20 AM54 °FDrizzle. Partly sunny.31 mph82%29.74 "HgN/A
8:20 AM52 °FPassing clouds.29 mph88%29.77 "HgN/A
7:20 AM52 °FPassing clouds.25 mph88%29.77 "HgN/A
6:20 AM52 °FPassing clouds.26 mph88%29.80 "HgN/A
5:20 AM52 °FPassing clouds.26 mph88%29.80 "HgN/A
4:20 AM52 °FPassing clouds.26 mph88%29.80 "HgN/A
3:20 AM52 °FPassing clouds.29 mph82%29.83 "HgN/A
2:20 AM50 °FPassing clouds.28 mph88%29.86 "HgN/A
1:20 AM48 °FPassing clouds.25 mph87%29.86 "HgN/A
12:20 AM48 °FPassing clouds.25 mph87%29.89 "Hg3 mi
11:20 PM
Dec 21
48 °FPassing clouds.28 mph82%29.89 "HgN/A
10:20 PM48 °FPassing clouds.29 mph82%29.92 "HgN/A
9:20 PM46 °FPassing clouds.25 mph87%29.95 "HgN/A
8:20 PM46 °FPassing clouds.22 mph87%29.98 "HgN/A
7:20 PM46 °FPassing clouds.23 mph87%29.98 "HgN/A
6:20 PM45 °FDrizzle. Fog.18 mph93%30.01 "Hg3 mi
5:20 PM46 °FPassing clouds.18 mph87%30.04 "HgN/A
Weather by CustomWeather, © 2014

See weather overviewHow to use our weather pages